Weather in Rio Mayo

Argentina     45°40′18″S   70°16′24″W
В апреле 2022 года жителям России запретили посещать сайт meteo.paraplan.net по решению Генеральной прокуратуры. Аудитория сайта уменьшилась в 10 раз. Владельцы сайта не видят смысла в поддержке погодного сервера в таких условиях. Сайт будет закрыт в октябре.
temp.,
°C
wind,
m/s
gust,
m/s
humid.,
%
clouds,
%
prec.,
mm/h
press.,
hPa
HPBL,
m
30 september, fri
fri3000:00+10wnw81467100 0.0 1014713
03:00+9wnw61271100 0.0 1015623
06:00+8w4874100 0.0 1015347
09:00+8w51071100 0.0 1017664
12:00+12wnw794515 0.0 10161297
15:00+15w1011270 0.0 10141661
18:00+14w1112260 0.0 10131460
21:00+10w813430 0.0 1017569
1 october, sat
sat100:00+8w712504 0.0 1019469
03:00+6w6115858 0.0 1019310
06:00+5w4662100 0.0 1020173
09:00+6w5556100 0.0 1022302
12:00+9nw1139100 0.0 1022638
15:00+12n1129100 0.0 1021867
18:00+13e2225100 0.0 10211066
21:00+11e4432100 0.0 102266
2 october, sun
sun200:00+10e4536100 0.0 102268
03:00+10e4639100 0.0 102271
06:00+8e4444100 0.0 102253
09:00+10e4744100 0.0 1022359
12:00+14ne783495 0.0 10201049
15:00+17nne6727100 0.0 10161581
18:00+18nne8932100 0.0 10141700
21:00+15ene61141100 0.0 1014308
3 october, mon
mon300:00+13ne5940100 0.0 1012182
03:00+12ne3344100 0.0 101028
06:00+11nne4452100 0.0 100946
09:00+12nne2254100 0.0 1007113
12:00+16wnw3434100 0.0 1005679
15:00+18wnw7827100 0.0 10041792
18:00+18wnw992596 0.0 10032045
21:00+14w91339100 0.0 1005563
4 october, tue
tue400:00+11w9134990 0.0 1005626
03:00+9wnw81164100 0.0 1006553
06:00+8wnw6127112 0.0 1006422
09:00+8wnw9136870 0.0 1007641
12:00+13wnw1116435 0.0 10061450
15:00+15wnw1315335 0.0 10062123
18:00+13w1417374 0.0 10071765
21:00+9w1217530 0.0 1010949